IRIDIUM 39 [-] (25042 NORAD) Tracking and Keplerian Element Data

This shows tracking and keplerian element data for the satellite.

Feedback or suggestion? Click here.




ElementValue
Catalog25042
NameIRIDIUM 39 [-]
Epoch Orbit8360
Epoch Day198.57933617
Epoch Year2018
RAAN210.5028
Inclination86.3923
Eccentricity0.0021285
Argument of Perigee79.4474
Mean Anonmoly280.9124
Mean Motion14.46250882
Decay Rate9.9E-07
L11 25042U 97069D 18198.57933617 .00000099 00000-0 21903-4 0 9999
L22 25042 86.3923 210.5028 0021285 79.4474 280.9124 14.46250882 83600

Live tracking and technical data element details for IRIDIUM 39 [-] (NORAD 25042). IRIDIUM 39 [-] can be tracked NOW for your location showing map with azimuth and elevation plus other details from your city location.

Track the satellite on the map from your city or location and see movement details for azimuth, elevation, latitude, longitude, range, height, and movement on the map or in text.







IsCatalogInMostPopularTable: catalog: 25042, numindb: 30
Update: records affected: 1



GetName: 25042 IRIDIUM 39 [-]

Hit Count: updated at: Fri, 20 Jul 2018 07:05:37 GMT